Location: *
(42.5628°N, 2.3633°E)
Time: 20:06:58
(UTC+00:00)

Cosmos 304 Rocket - Pass Details

Date: 30 March 2020
Orbit: 679 x 687 km, 74.0° (Epoch: 31 May)

Event Time Altitude Azimuth Distance (km) Brightness Sun altitude
Rises 18:43:57 0° 343° (NNW) 3,047 7.5 -6.1°
Reaches altitude 10° 18:46:18 10° 347° (NNW) 2,128 6.7 -6.6°
Maximum altitude 18:51:02 60° 68° (ENE) 781 3.8 -7.4°
Drops below altitude 10° 18:55:44 10° 148° (SSE) 2,113 5.9 -8.3°
Sets 18:58:03 0° 152° (SSE) 3,025 6.7 -8.7°
